Lid_Strength_Index
10 12 12 12 12 10 11 13 14 11 9 10 11 11 9 7 7 8 7 7 6 6 4 3 2 2 2 1 3 3 4 4 3 4 4 3 4 3 3 2 1 1 0 -0
11 13 10 8 8 10 11 13 13 11 9 10 11 12 9 8 8 8 7 7 6 6 5 3 3 3 4 3 4 4 4 4 4 4 4 4 4 4 4 3 2 2 1 0
13 11 9 8 9 10 11 13 13 13 11 10 11 13 11 9 8 7 6 6 6 6 6 5 4 3 4 4 4 4 4 4 3 3 4 4 4 4 4 4 4 3 2 1
9 8 9 10 10 10 13 9 11 12 13 17 11 18 13 11 10 9 7 7 6 6 5 5 5 4 5 5 4 4 4 4 4 4 5 6 6 7 5 5 4 4 2 2
10 9 9 10 10 10 11 9 11 11 14 14 15 17 15 11 12 10 8 7 6 6 5 6 6 5 5 5 4 3 4 5 4 4 5 6 7 7 6 5 5 4 4 3
9 7 8 9 9 7 8 10 11 13 14 19 15 16 16 14 11 10 9 7 6 6 5 6 6 6 6 5 5 5 5 5 5 5 5 6 7 7 6 5 5 5 4 3
10 9 7 7 9 8 10 14 17 18 19 20 14 16 14 11 9 9 9 7 6 6 8 8 8 7 6 6 6 5 6 5 5 5 5 6 6 6 5 5 5 4 4 2
13 14 9 8 10 11 13 13 16 20 20 19 14 18 15 10 8 7 7 7 8 9 8 8 8 7 7 6 6 6 6 5 5 6 6 6 5 6 5 4 4 2 2 1
13 13 8 8 9 10 12 13 13 16 16 18 17 14 11 9 9 8 8 8 10 9 9 8 7 7 7 7 7 6 5 5 6 6 6 5 5 5 5 4 3 2 1 1
11 14 9 8 8 9 10 10 14 14 21 22 18 16 16 13 11 9 8 9 10 10 9 8 7 6 7 7 6 5 5 6 6 6 6 5 5 5 4 4 2 2 2 2
11 12 11 9 11 12 12 13 12 13 15 19 21 18 11 11 10 9 9 10 10 10 8 7 7 6 7 7 6 5 5 5 5 5 5 5 4 5 5 4 3 3 3 3
9 12 14 13 9 9 11 12 13 16 18 16 16 17 9 9 8 8 9 10 10 8 7 7 6 6 7 7 6 6 6 6 5 5 5 5 4 3 3 4 4 3 3 3
9 13 16 14 11 10 11 11 11 13 13 17 18 16 8 8 10 11 11 10 9 8 7 7 6 7 7 7 6 6 6 6 5 5 5 5 5 4 4 4 4 4 3 3
7 12 14 16 14 11 12 11 11 12 16 16 16 14 11 10 11 11 10 9 8 7 7 6 7 8 8 6 6 5 6 5 5 4 5 4 4 4 4 4 4 4 4 3
9 13 12 11 10 10 11 11 11 13 13 15 14 14 11 9 10 10 9 8 7 7 7 6 7 8 7 6 5 5 5 5 4 4 4 3 3 3 3 3 3 3 3 3
9 13 12 12 10 10 12 11 11 11 11 11 11 13 9 9 9 9 8 8 7 7 6 7 7 7 7 6 5 6 5 4 4 4 3 3 3 3 3 3 2 3 3 3
11 12 13 15 12 12 15 12 11 11 10 11 13 10 9 9 9 9 9 7 7 7 7 7 7 7 6 6 6 6 5 4 4 4 3 3 2 3 3 3 3 3 4 4
11 12 12 15 13 19 12 8 8 10 9 9 9 8 8 8 8 8 8 8 7 7 7 7 7 6 6 6 6 6 5 4 4 4 3 2 3 3 3 3 4 4 4 4
9 11 14 16 16 13 11 10 10 11 11 8 9 8 8 7 8 9 7 7 7 7 6 6 6 6 6 6 6 5 5 5 4 3 3 3 3 3 4 4 3 3 4 4
9 9 13 14 17 19 12 8 6 7 14 7 7 8 8 8 11 10 8 7 6 6 6 6 6 6 6 6 5 5 5 4 4 3 3 3 3 4 4 5 4 3 3 3
13 13 14 15 16 13 8 7 6 14 13 7 7 7 8 9 8 8 7 7 6 6 6 6 6 6 5 6 5 5 5 4 3 2 2 3 3 4 5 7 6 5 3 3
14 15 15 14 16 16 7 7 10 8 7 6 7 7 8 7 7 7 6 6 6 6 6 5 6 6 5 5 5 5 5 3 3 3 3 3 3 3 5 7 7 6 5 5
14 12 13 12 12 8 7 7 6 6 7 7 7 7 6 7 7 7 7 6 6 6 6 6 6 5 5 5 5 5 4 3 3 3 3 3 2 2 3 5 7 8 8 7
9 8 11 10 9 8 7 6 7 7 8 7 7 6 6 6 6 7 7 6 6 6 6 5 5 5 5 4 4 5 4 3 3 3 3 3 3 3 3 4 7 9 9 10
9 8 10 10 8 7 7 6 6 6 6 6 6 6 6 6 6 7 6 6 6 6 6 5 5 5 5 4 3 4 3 3 3 3 3 3 3 3 3 4 5 7 8 9
8 9 11 12 7 7 7 5 5 6 6 6 6 6 6 6 6 6 6 5 5 6 6 6 5 5 4 4 3 3 3 3 3 3 4 3 3 3 4 4 5 8 9 10